Weather History for KSPW - November, 2013

Change the Weather History Date:

Wednesday, November 6, 2013

  Actual Average Record
Temperature  
Mean Temperature 32 °F -  
Max Temperature 37 °F 47 °F 72 °F (2004)
Min Temperature 27 °F 27 °F -4 °F (1991)
Degree Days  
Heating Degree Days 33    
Moisture  
Dew Point 26 °F    
Average Humidity 82    
Maximum Humidity 93    
Minimum Humidity 64    
Precipitation  
Precipitation 0.00 in - - ()
Sea Level Pressure  
Sea Level Pressure 30.17 in    
Wind  
Wind Speed 15 mph (WNW)    
Max Wind Speed 23 mph    
Max Gust Speed 29 mph    
Visibility 9 miles    
Events Snow    
Averages and records for this station are not official NWS values.
T = Trace of Precipitation, MM = Missing Value Source: NWS Daily Summary

Daily Weather History Graph

Daily Weather History Graph

Search for Another Location

Airport or City:

Trip Planner

Search our weather history database for the weather conditions in past years. The results will help you decide how hot, cold, wet, or windy it might be!

Date:

Astronomy

Nov. 06, 2013 Rise Set
Actual Time 7:02 AM CST 5:05 PM CST
Civil Twilight 6:32 AM CST 5:35 PM CST
Nautical Twilight 5:58 AM CST 6:09 PM CST
Astronomical Twilight 5:25 AM CST 6:43 PM CST
Moon 10:20 AM CST (11/6) 8:09 PM CST (11/6)
Length of Visible Light 11h 03m
Length of Day
10h 03m
Waxing Crescent, 14% of the Moon is Illuminated
Nov 6
Waxing Crescent
Nov 9
First Quarter
Nov 17
Full
Nov 25
Last Quarter
Dec 2
New

Hourly Weather History & Observations

Time (CST) Temp. Windchill Dew Point Humidity Pressure Visibility Wind Dir Wind Speed Gust Speed Precip Events Conditions
12:53 AM 32.0 °F 19.5 °F 28.9 °F 88% 30.06 in 9.0 mi North 21.9 mph 28.8 mph 0.00 in   Overcast
1:09 AM 32.0 °F 19.2 °F 28.4 °F 87% 30.03 in 2.5 mi NNW 23.0 mph - 0.00 in Snow Light Snow
1:22 AM 30.2 °F 18.5 °F 28.4 °F 93% 30.04 in 3.0 mi NNW 17.3 mph 28.8 mph 0.00 in Snow Light Snow
1:30 AM 30.2 °F 17.4 °F 28.4 °F 93% 30.05 in 2.5 mi NNW 20.7 mph 28.8 mph 0.00 in Snow Light Snow
1:42 AM 30.2 °F 17.8 °F 28.4 °F 93% 30.06 in 4.0 mi NNW 19.6 mph - 0.00 in Snow Light Snow
1:53 AM 30.9 °F 19.8 °F 28.9 °F 92% 30.11 in 7.0 mi North 16.1 mph 25.3 mph 0.00 in   Overcast
2:09 AM 32.0 °F 19.8 °F 28.4 °F 87% 30.05 in 10.0 mi North 20.7 mph 27.6 mph 0.00 in   Overcast
2:32 AM 32.0 °F 20.1 °F 28.4 °F 87% 30.06 in 10.0 mi North 19.6 mph 25.3 mph 0.00 in   Overcast
2:53 AM 32.0 °F 20.5 °F 28.0 °F 85% 30.10 in 6.0 mi North 18.4 mph - 0.00 in Snow Light Snow
3:53 AM 30.9 °F 21.2 °F 28.0 °F 89% 30.10 in 10.0 mi North 12.7 mph - 0.00 in   Overcast
4:53 AM 30.0 °F 20.5 °F 26.1 °F 85% 30.12 in 10.0 mi NNW 11.5 mph - N/A   Partly Cloudy
5:53 AM 28.0 °F 20.0 °F 23.0 °F 81% 30.14 in 10.0 mi NW 8.1 mph - N/A   Mostly Cloudy
6:53 AM 28.9 °F 19.8 °F 24.1 °F 82% 30.14 in 10.0 mi WNW 10.4 mph - N/A   Overcast
7:53 AM 28.9 °F 18.6 °F 24.1 °F 82% 30.16 in 10.0 mi WNW 12.7 mph - N/A   Scattered Clouds
8:53 AM 28.9 °F 19.2 °F 24.1 °F 82% 30.19 in 10.0 mi WNW 11.5 mph - N/A   Clear
9:53 AM 30.9 °F 22.2 °F 24.1 °F 76% 30.21 in 10.0 mi WNW 10.4 mph - N/A   Clear
10:53 AM 33.1 °F 25.5 °F 25.0 °F 72% 30.23 in 10.0 mi WNW 9.2 mph - N/A   Clear
11:53 AM 34.0 °F 26.6 °F 26.1 °F 73% 30.23 in 10.0 mi West 9.2 mph - N/A   Clear
12:53 PM 36.0 °F 28.5 °F 26.1 °F 67% 30.22 in 10.0 mi West 10.4 mph - N/A   Clear
1:53 PM 37.9 °F 30.5 °F 27.0 °F 65% 30.22 in 10.0 mi WNW 11.5 mph - N/A   Clear
2:53 PM 37.0 °F 28.9 °F 26.1 °F 65% 30.22 in 10.0 mi WNW 12.7 mph - N/A   Clear
3:53 PM 36.0 °F 27.5 °F 25.0 °F 64% 30.23 in 10.0 mi West 12.7 mph - N/A   Clear
4:53 PM 33.1 °F 27.7 °F 26.1 °F 75% 30.22 in 10.0 mi West 5.8 mph - N/A   Clear
5:53 PM 30.9 °F 24.3 °F 25.0 °F 79% 30.24 in 10.0 mi WSW 6.9 mph - N/A   Clear
6:53 PM 30.0 °F 23.2 °F 25.0 °F 82% 30.25 in 10.0 mi WSW 6.9 mph - N/A   Clear
7:53 PM 28.0 °F 22.8 °F 25.0 °F 88% 30.24 in 10.0 mi SW 4.6 mph - N/A   Clear
8:53 PM 28.0 °F 20.8 °F 25.0 °F 88% 30.24 in 10.0 mi SW 6.9 mph - N/A   Partly Cloudy
9:53 PM 27.0 °F 19.5 °F 24.1 °F 89% 30.26 in 9.0 mi WSW 6.9 mph - N/A   Clear
10:53 PM 27.0 °F 20.5 °F 24.1 °F 89% 30.26 in 10.0 mi WNW 5.8 mph - N/A   Mostly Cloudy
11:00 PM 28.4 °F 20.4 °F 24.8 °F 86% 30.21 in 10.0 mi West 8.1 mph - N/A   Mostly Cloudy
11:21 PM 30.2 °F 21.9 °F 26.6 °F 86% 30.20 in 10.0 mi West 9.2 mph - N/A   Overcast
11:53 PM 30.9 °F 20.7 °F 28.0 °F 89% 30.25 in 10.0 mi West 13.8 mph 21.9 mph N/A   Overcast